Time,TemperatureF,DewpointF,PressureIn,WindDirection,WindDirectionDegrees,WindSpeedMPH,WindSpeedGustMPH,Humidity,HourlyPrecipIn,Conditions,Clouds,dailyrainin,SoftwareType,DateUTC
2013-02-25 00:01:00,65.0,63.0,29.94,East,82,1.0,-999.0,92,-99.99,,,-99.99,,2013-02-25 05:01:00,
2013-02-25 00:11:00,65.0,63.0,29.94,East,82,1.0,-999.0,92,-99.99,,,-99.99,,2013-02-25 05:11:00,
2013-02-25 00:22:00,65.0,62.0,29.93,East,80,2.0,-999.0,91,-99.99,,,-99.99,,2013-02-25 05:22:00,
2013-02-25 00:32:00,64.0,61.0,29.92,East,83,2.0,-999.0,91,-99.99,,,-99.99,,2013-02-25 05:32:00,
2013-02-25 00:42:00,64.0,61.0,29.92,East,83,2.0,-999.0,91,-99.99,,,-99.99,,2013-02-25 05:42:00,
2013-02-25 00:52:00,64.0,61.0,29.92,East,86,1.0,-999.0,91,-99.99,,,-99.99,,2013-02-25 05:52:00,
2013-02-25 01:02:00,64.0,61.0,29.91,East,94,1.0,-999.0,91,-99.99,,,-99.99,,2013-02-25 06:02:00,
2013-02-25 01:11:00,64.0,61.0,29.91,East,94,1.0,-999.0,91,-99.99,,,-99.99,,2013-02-25 06:11:00,
2013-02-25 01:21:00,64.0,61.0,29.92,East,94,0.0,-999.0,91,-99.99,,,-99.99,,2013-02-25 06:21:00,
2013-02-25 01:32:00,64.0,62.0,29.91,ESE,103,1.0,-999.0,92,-99.99,,,-99.99,,2013-02-25 06:32:00,
2013-02-25 01:42:00,64.0,62.0,29.91,ESE,103,1.0,-999.0,92,-99.99,,,-99.99,,2013-02-25 06:42:00,
2013-02-25 01:52:00,64.0,62.0,29.91,SE,135,1.0,-999.0,92,-99.99,,,-99.99,,2013-02-25 06:52:00,
2013-02-25 02:01:00,64.0,62.0,29.89,SE,138,1.0,-999.0,92,-99.99,,,-99.99,,2013-02-25 07:01:00,
2013-02-25 02:11:00,64.0,62.0,29.89,ESE,109,0.0,-999.0,92,-99.99,,,-99.99,,2013-02-25 07:11:00,
2013-02-25 02:21:00,64.0,62.0,29.89,ESE,109,0.0,-999.0,92,-99.99,,,-99.99,,2013-02-25 07:21:00,
2013-02-25 02:32:00,64.0,62.0,29.89,ESE,109,0.0,-999.0,93,-99.99,,,-99.99,,2013-02-25 07:32:00,
2013-02-25 02:42:00,64.0,62.0,29.89,ESE,109,0.0,-999.0,93,-99.99,,,-99.99,,2013-02-25 07:42:00,
2013-02-25 02:52:00,64.0,62.0,29.89,ESE,109,0.0,-999.0,93,-99.99,,,-99.99,,2013-02-25 07:52:00,
2013-02-25 03:01:00,64.0,62.0,29.89,ESE,109,0.0,-999.0,93,-99.99,,,-99.99,,2013-02-25 08:01:00,
2013-02-25 03:11:00,64.0,62.0,29.87,ESE,109,0.0,-999.0,93,-99.99,,,-99.99,,2013-02-25 08:11:00,
2013-02-25 03:22:00,64.0,62.0,29.87,ESE,109,0.0,-999.0,93,-99.99,,,-99.99,,2013-02-25 08:22:00,
2013-02-25 03:32:00,64.0,62.0,29.87,ESE,109,0.0,-999.0,93,-99.99,,,-99.99,,2013-02-25 08:32:00,
2013-02-25 03:42:00,64.0,62.0,29.87,ESE,109,0.0,-999.0,93,-99.99,,,-99.99,,2013-02-25 08:42:00,
2013-02-25 03:52:00,64.0,62.0,29.87,ESE,109,0.0,-999.0,94,-99.99,,,-99.99,,2013-02-25 08:52:00,
2013-02-25 04:01:00,64.0,62.0,29.87,ESE,109,0.0,-999.0,94,-99.99,,,-99.99,,2013-02-25 09:01:00,
2013-02-25 04:12:00,64.0,62.0,29.87,ESE,109,0.0,-999.0,94,-99.99,,,-99.99,,2013-02-25 09:12:00,
2013-02-25 04:21:00,64.0,62.0,29.85,ESE,109,0.0,-999.0,94,-99.99,,,-99.99,,2013-02-25 09:21:00,
2013-02-25 04:32:00,64.0,62.0,29.85,ESE,109,0.0,-999.0,94,-99.99,,,-99.99,,2013-02-25 09:32:00,
2013-02-25 04:42:00,64.0,62.0,29.85,ESE,109,0.0,-999.0,94,-99.99,,,-99.99,,2013-02-25 09:42:00,
2013-02-25 04:52:00,64.0,63.0,29.85,ESE,111,0.0,-999.0,95,-99.99,,,-99.99,,2013-02-25 09:52:00,
2013-02-25 05:01:00,64.0,63.0,29.85,ESE,111,0.0,-999.0,95,-99.99,,,-99.99,,2013-02-25 10:01:00,
2013-02-25 05:11:00,64.0,63.0,29.85,ESE,111,0.0,-999.0,95,-99.99,,,-99.99,,2013-02-25 10:11:00,
2013-02-25 05:21:00,64.0,63.0,29.85,ESE,111,0.0,-999.0,95,-99.99,,,-99.99,,2013-02-25 10:21:00,
2013-02-25 05:32:00,64.0,63.0,29.85,ESE,111,0.0,-999.0,95,-99.99,,,-99.99,,2013-02-25 10:32:00,
2013-02-25 05:42:00,64.0,63.0,29.85,ESE,111,0.0,-999.0,95,-99.99,,,-99.99,,2013-02-25 10:42:00,
2013-02-25 05:52:00,64.0,63.0,29.85,ESE,111,0.0,-999.0,95,-99.99,,,-99.99,,2013-02-25 10:52:00,
2013-02-25 06:01:00,65.0,64.0,29.86,ESE,111,0.0,-999.0,95,-99.99,,,-99.99,,2013-02-25 11:01:00,
2013-02-25 06:11:00,65.0,64.0,29.86,ESE,111,0.0,-999.0,95,-99.99,,,-99.99,,2013-02-25 11:11:00,
2013-02-25 06:22:00,65.0,64.0,29.86,ESE,111,0.0,-999.0,95,-99.99,,,-99.99,,2013-02-25 11:22:00,
2013-02-25 06:32:00,64.0,63.0,29.86,ESE,111,0.0,-999.0,95,-99.99,,,-99.99,,2013-02-25 11:32:00,
2013-02-25 06:42:00,64.0,63.0,29.86,ESE,111,0.0,-999.0,95,-99.99,,,-99.99,,2013-02-25 11:42:00,
2013-02-25 06:52:00,64.0,63.0,29.86,ESE,111,0.0,-999.0,95,-99.99,,,-99.99,,2013-02-25 11:52:00,
2013-02-25 07:02:00,64.0,63.0,29.87,ESE,111,1.0,-999.0,95,-99.99,,,-99.99,,2013-02-25 12:02:00,
2013-02-25 07:11:00,64.0,63.0,29.87,ESE,111,1.0,-999.0,95,-99.99,,,-99.99,,2013-02-25 12:11:00,
2013-02-25 07:22:00,64.0,63.0,29.88,ESE,111,1.0,-999.0,96,-99.99,,,-99.99,,2013-02-25 12:22:00,
2013-02-25 07:32:00,64.0,63.0,29.88,ESE,111,0.0,-999.0,96,-99.99,,,-99.99,,2013-02-25 12:32:00,
2013-02-25 07:42:00,64.0,63.0,29.88,ESE,111,0.0,-999.0,96,-99.99,,,-99.99,,2013-02-25 12:42:00,
2013-02-25 07:56:00,65.0,64.0,29.88,ESE,105,1.0,-999.0,96,-99.99,,,-99.99,,2013-02-25 12:56:00,
2013-02-25 08:02:00,65.0,64.0,29.88,ESE,107,1.0,-999.0,96,-99.99,,,-99.99,,2013-02-25 13:02:00,
2013-02-25 08:12:00,65.0,64.0,29.88,ESE,107,1.0,-999.0,96,-99.99,,,-99.99,,2013-02-25 13:12:00,
2013-02-25 08:23:00,66.0,65.0,29.89,ESE,109,1.0,-999.0,96,-99.99,,,-99.99,,2013-02-25 13:23:00,
2013-02-25 08:32:00,67.0,66.0,29.89,ESE,119,2.0,-999.0,96,-99.99,,,-99.99,,2013-02-25 13:32:00,
2013-02-25 08:42:00,67.0,66.0,29.89,ESE,119,2.0,-999.0,96,-99.99,,,-99.99,,2013-02-25 13:42:00,
2013-02-25 08:52:00,67.0,66.0,29.89,SSE,162,2.0,-999.0,96,-99.99,,,-99.99,,2013-02-25 13:52:00,
2013-02-25 09:03:00,68.0,67.0,29.90,SSE,163,1.0,-999.0,96,-99.99,,,-99.99,,2013-02-25 14:03:00,
2013-02-25 09:17:00,68.0,67.0,29.90,SSE,163,1.0,-999.0,96,-99.99,,,-99.99,,2013-02-25 14:17:00,
2013-02-25 09:32:00,70.0,68.0,29.90,SSE,162,0.0,-999.0,95,-99.99,,,-99.99,,2013-02-25 14:32:00,
2013-02-25 09:42:00,70.0,68.0,29.90,SSE,162,0.0,-999.0,95,-99.99,,,-99.99,,2013-02-25 14:42:00,
2013-02-25 09:52:00,72.0,69.0,29.89,SSE,164,3.0,-999.0,90,-99.99,,,-99.99,,2013-02-25 14:52:00,
2013-02-25 10:03:00,72.0,68.0,29.89,ESE,118,2.0,-999.0,86,-99.99,,,-99.99,,2013-02-25 15:03:00,
2013-02-25 10:11:00,72.0,68.0,29.89,ESE,118,2.0,-999.0,86,-99.99,,,-99.99,,2013-02-25 15:11:00,
2013-02-25 10:22:00,74.0,68.0,29.88,South,186,5.0,-999.0,82,-99.99,,,-99.99,,2013-02-25 15:22:00,
2013-02-25 10:32:00,76.0,69.0,29.88,SSW,209,6.0,-999.0,78,-99.99,,,-99.99,,2013-02-25 15:32:00,
2013-02-25 10:42:00,76.0,69.0,29.88,SSW,209,6.0,-999.0,78,-99.99,,,-99.99,,2013-02-25 15:42:00,
2013-02-25 10:52:00,76.0,68.0,29.88,South,185,4.0,-999.0,77,-99.99,,,-99.99,,2013-02-25 15:52:00,
2013-02-25 11:02:00,76.0,69.0,29.88,SSW,201,4.0,-999.0,78,-99.99,,,-99.99,,2013-02-25 16:02:00,
2013-02-25 11:12:00,76.0,69.0,29.88,SSW,201,4.0,-999.0,78,-99.99,,,-99.99,,2013-02-25 16:12:00,
2013-02-25 11:22:00,76.0,67.0,29.88,South,179,4.0,-999.0,74,-99.99,,,-99.99,,2013-02-25 16:22:00,
2013-02-25 11:32:00,77.0,67.0,29.88,South,184,3.0,-999.0,71,-99.99,,,-99.99,,2013-02-25 16:32:00,
2013-02-25 11:42:00,77.0,67.0,29.88,South,184,3.0,-999.0,71,-99.99,,,-99.99,,2013-02-25 16:42:00,
2013-02-25 11:52:00,78.0,66.0,29.88,SSW,207,4.0,-999.0,67,-99.99,,,-99.99,,2013-02-25 16:52:00,
2013-02-25 12:01:00,78.0,65.0,29.87,SSW,202,5.0,-999.0,65,-99.99,,,-99.99,,2013-02-25 17:01:00,
2013-02-25 12:11:00,78.0,65.0,29.87,SSW,202,5.0,-999.0,65,-99.99,,,-99.99,,2013-02-25 17:11:00,
2013-02-25 12:21:00,78.0,65.0,29.87,SSW,202,5.0,-999.0,65,-99.99,,,-99.99,,2013-02-25 17:21:00,
2013-02-25 12:32:00,80.0,65.0,29.85,South,182,3.0,-999.0,61,-99.99,,,-99.99,,2013-02-25 17:32:00,
2013-02-25 12:42:00,80.0,65.0,29.85,South,182,3.0,-999.0,61,-99.99,,,-99.99,,2013-02-25 17:42:00,
2013-02-25 12:52:00,81.0,65.0,29.85,SSW,203,6.0,-999.0,58,-99.99,,,-99.99,,2013-02-25 17:52:00,
2013-02-25 13:02:00,82.0,64.0,29.83,SSW,196,5.0,-999.0,54,-99.99,,,-99.99,,2013-02-25 18:02:00,
2013-02-25 13:12:00,82.0,64.0,29.83,SSW,196,5.0,-999.0,54,-99.99,,,-99.99,,2013-02-25 18:12:00,
2013-02-25 13:21:00,81.0,64.0,29.82,SSW,192,4.0,-999.0,56,-99.99,,,-99.99,,2013-02-25 18:21:00,
2013-02-25 13:32:00,83.0,62.0,29.82,SW,219,6.0,-999.0,50,-99.99,,,-99.99,,2013-02-25 18:32:00,
2013-02-25 13:42:00,83.0,62.0,29.82,SW,219,6.0,-999.0,50,-99.99,,,-99.99,,2013-02-25 18:42:00,
2013-02-25 13:52:00,81.0,62.0,29.82,South,190,5.0,-999.0,52,-99.99,,,-99.99,,2013-02-25 18:52:00,
2013-02-25 14:01:00,81.0,64.0,29.82,SSW,207,6.0,-999.0,56,-99.99,,,-99.99,,2013-02-25 19:01:00,
2013-02-25 14:11:00,81.0,64.0,29.82,SSW,207,6.0,-999.0,56,-99.99,,,-99.99,,2013-02-25 19:11:00,
2013-02-25 14:21:00,79.0,65.0,29.80,SSE,168,7.0,-999.0,62,-99.99,,,-99.99,,2013-02-25 19:21:00,
2013-02-25 14:32:00,79.0,64.0,29.80,SSW,193,5.0,-999.0,60,-99.99,,,-99.99,,2013-02-25 19:32:00,
2013-02-25 14:42:00,79.0,64.0,29.80,SSW,193,5.0,-999.0,60,-99.99,,,-99.99,,2013-02-25 19:42:00,
2013-02-25 14:52:00,79.0,64.0,29.80,SSW,193,5.0,-999.0,60,-99.99,,,-99.99,,2013-02-25 19:52:00,
2013-02-25 15:01:00,81.0,63.0,29.80,SSW,203,4.0,-999.0,54,-99.99,,,-99.99,,2013-02-25 20:01:00,
2013-02-25 15:11:00,81.0,63.0,29.80,SSW,203,4.0,-999.0,54,-99.99,,,-99.99,,2013-02-25 20:11:00,
2013-02-25 15:22:00,83.0,63.0,29.79,SSW,209,4.0,-999.0,51,-99.99,,,-99.99,,2013-02-25 20:22:00,
2013-02-25 15:32:00,81.0,63.0,29.79,SSW,199,4.0,-999.0,54,-99.99,,,-99.99,,2013-02-25 20:32:00,
2013-02-25 15:42:00,81.0,63.0,29.79,SSW,199,4.0,-999.0,54,-99.99,,,-99.99,,2013-02-25 20:42:00,
2013-02-25 15:52:00,82.0,64.0,29.78,South,173,1.0,-999.0,55,-99.99,,,-99.99,,2013-02-25 20:52:00,
2013-02-25 16:01:00,82.0,63.0,29.79,SW,221,2.0,-999.0,53,-99.99,,,-99.99,,2013-02-25 21:01:00,
2013-02-25 16:11:00,82.0,63.0,29.79,SW,221,2.0,-999.0,53,-99.99,,,-99.99,,2013-02-25 21:11:00,
2013-02-25 16:21:00,81.0,63.0,29.79,SW,220,2.0,-999.0,55,-99.99,,,-99.99,,2013-02-25 21:21:00,
2013-02-25 16:32:00,82.0,62.0,29.78,SSW,205,2.0,-999.0,51,-99.99,,,-99.99,,2013-02-25 21:32:00,
2013-02-25 16:42:00,82.0,62.0,29.78,SSW,205,2.0,-999.0,51,-99.99,,,-99.99,,2013-02-25 21:42:00,
2013-02-25 16:52:00,82.0,61.0,29.78,SSW,202,2.0,-999.0,50,-99.99,,,-99.99,,2013-02-25 21:52:00,
2013-02-25 17:01:00,82.0,62.0,29.77,SSW,202,1.0,-999.0,51,-99.99,,,-99.99,,2013-02-25 22:01:00,
2013-02-25 17:11:00,82.0,62.0,29.77,SSW,202,1.0,-999.0,51,-99.99,,,-99.99,,2013-02-25 22:11:00,
2013-02-25 17:21:00,80.0,62.0,29.77,SSW,192,1.0,-999.0,54,-99.99,,,-99.99,,2013-02-25 22:21:00,
2013-02-25 17:32:00,79.0,62.0,29.77,South,180,3.0,-999.0,57,-99.99,,,-99.99,,2013-02-25 22:32:00,
2013-02-25 17:42:00,79.0,62.0,29.77,South,180,3.0,-999.0,57,-99.99,,,-99.99,,2013-02-25 22:42:00,
2013-02-25 17:52:00,78.0,62.0,29.77,SSW,202,2.0,-999.0,58,-99.99,,,-99.99,,2013-02-25 22:52:00,
2013-02-25 18:01:00,78.0,63.0,29.77,SSW,200,0.0,-999.0,60,-99.99,,,-99.99,,2013-02-25 23:01:00,
2013-02-25 18:11:00,78.0,63.0,29.77,SSW,200,0.0,-999.0,60,-99.99,,,-99.99,,2013-02-25 23:11:00,
2013-02-25 18:22:00,76.0,63.0,29.77,South,178,1.0,-999.0,65,-99.99,,,-99.99,,2013-02-25 23:22:00,
2013-02-25 18:32:00,75.0,65.0,29.78,South,172,0.0,-999.0,71,-99.99,,,-99.99,,2013-02-25 23:32:00,
2013-02-25 18:42:00,75.0,65.0,29.78,South,172,0.0,-999.0,71,-99.99,,,-99.99,,2013-02-25 23:42:00,
2013-02-25 18:52:00,75.0,65.0,29.79,South,170,0.0,-999.0,70,-99.99,,,-99.99,,2013-02-25 23:52:00,
2013-02-25 19:01:00,75.0,64.0,29.79,South,170,0.0,-999.0,68,-99.99,,,-99.99,,2013-02-26 00:01:00,
2013-02-25 19:12:00,75.0,64.0,29.79,South,170,0.0,-999.0,68,-99.99,,,-99.99,,2013-02-26 00:12:00,
2013-02-25 19:22:00,74.0,63.0,29.79,SSE,168,0.0,-999.0,69,-99.99,,,-99.99,,2013-02-26 00:22:00,
2013-02-25 19:32:00,74.0,63.0,29.79,South,170,0.0,-999.0,69,-99.99,,,-99.99,,2013-02-26 00:32:00,
2013-02-25 19:42:00,74.0,63.0,29.79,South,170,0.0,-999.0,69,-99.99,,,-99.99,,2013-02-26 00:42:00,
2013-02-25 19:52:00,74.0,64.0,29.79,South,170,0.0,-999.0,72,-99.99,,,-99.99,,2013-02-26 00:52:00,
2013-02-25 20:02:00,74.0,64.0,29.80,NNE,29,0.0,-999.0,70,-99.99,,,-99.99,,2013-02-26 01:02:00,
2013-02-25 20:11:00,74.0,64.0,29.80,NNE,29,0.0,-999.0,70,-99.99,,,-99.99,,2013-02-26 01:11:00,
2013-02-25 20:21:00,74.0,65.0,29.80,NNE,24,3.0,-999.0,73,-99.99,,,-99.99,,2013-02-26 01:21:00,
2013-02-25 20:32:00,73.0,65.0,29.80,NNE,15,2.0,-999.0,76,-99.99,,,-99.99,,2013-02-26 01:32:00,
2013-02-25 20:42:00,73.0,65.0,29.80,NNE,15,2.0,-999.0,76,-99.99,,,-99.99,,2013-02-26 01:42:00,
2013-02-25 20:52:00,73.0,66.0,29.80,North,355,4.0,-999.0,80,-99.99,,,-99.99,,2013-02-26 01:52:00,
2013-02-25 21:01:00,72.0,67.0,29.81,North,9,4.0,-999.0,83,-99.99,,,-99.99,,2013-02-26 02:01:00,
2013-02-25 21:11:00,72.0,67.0,29.81,North,9,4.0,-999.0,83,-99.99,,,-99.99,,2013-02-26 02:11:00,
2013-02-25 21:21:00,71.0,66.0,29.81,North,11,4.0,-999.0,85,-99.99,,,-99.99,,2013-02-26 02:21:00,
2013-02-25 21:32:00,70.0,66.0,29.80,NNE,15,3.0,-999.0,87,-99.99,,,-99.99,,2013-02-26 02:32:00,
2013-02-25 21:42:00,70.0,66.0,29.80,NNE,15,3.0,-999.0,87,-99.99,,,-99.99,,2013-02-26 02:42:00,
2013-02-25 21:52:00,70.0,67.0,29.80,NNE,21,2.0,-999.0,89,-99.99,,,-99.99,,2013-02-26 02:52:00,
2013-02-25 22:02:00,69.0,66.0,29.80,ENE,57,3.0,-999.0,89,-99.99,,,-99.99,,2013-02-26 03:02:00,
2013-02-25 22:11:00,69.0,66.0,29.80,ENE,57,3.0,-999.0,89,-99.99,,,-99.99,,2013-02-26 03:11:00,
2013-02-25 22:22:00,69.0,66.0,29.80,ENE,77,2.0,-999.0,90,-99.99,,,-99.99,,2013-02-26 03:22:00,
2013-02-25 22:32:00,69.0,66.0,29.79,ENE,77,1.0,-999.0,91,-99.99,,,-99.99,,2013-02-26 03:32:00,
2013-02-25 22:42:00,69.0,66.0,29.79,ENE,77,1.0,-999.0,91,-99.99,,,-99.99,,2013-02-26 03:42:00,
2013-02-25 22:52:00,69.0,67.0,29.80,ENE,57,1.0,-999.0,92,-99.99,,,-99.99,,2013-02-26 03:52:00,
2013-02-25 23:01:00,69.0,67.0,29.80,ENE,63,2.0,-999.0,92,-99.99,,,-99.99,,2013-02-26 04:01:00,
2013-02-25 23:11:00,69.0,67.0,29.80,ENE,63,2.0,-999.0,92,-99.99,,,-99.99,,2013-02-26 04:11:00,
2013-02-25 23:22:00,69.0,67.0,29.80,ENE,63,2.0,-999.0,92,-99.99,,,-99.99,,2013-02-26 04:22:00,
2013-02-25 23:32:00,69.0,67.0,29.80,ENE,66,2.0,-999.0,93,-99.99,,,-99.99,,2013-02-26 04:32:00,
2013-02-25 23:42:00,69.0,67.0,29.80,ENE,66,2.0,-999.0,93,-99.99,,,-99.99,,2013-02-26 04:42:00,
2013-02-25 23:52:00,69.0,67.0,29.79,ENE,71,1.0,-999.0,93,-99.99,,,-99.99,,2013-02-26 04:52:00,